This is the latest recevied weather packets stored in our database for station/object KD9CCP. If no packets are shown the sender has not sent any weather packets the latest 1 day(s).
| Time | Temp. | Humidity | Pressure | Rain* | Wind** | Luminosity | Snow |
|---|---|---|---|---|---|---|---|
| 1778077447 | 1.67° C | 71% | 1014.8 hPa | 0 mm | - | 19 W/m² | - |
| 1778075934 | 1.67° C | 75% | 1014.4 hPa | 0 mm | - | 30 W/m² | - |
| 1778074417 | 1.67° C | 74% | 1014.2 hPa | 0 mm | - | 29 W/m² | - |
| 1778073811 | 1.67° C | 72% | 1014.5 hPa | 0 mm | - | 28 W/m² | - |
| 1778073205 | 1.67° C | 70% | 1014.4 hPa | 0 mm | - | 27 W/m² | - |
| 1778071693 | 1.67° C | 77% | 1014.3 hPa | 0 mm | - | 17 W/m² | - |
| 1778070786 | 1.11° C | 74% | 1014.1 hPa | 0 mm | - | 15 W/m² | - |
| 1778069574 | 1.11° C | 73% | 1013.6 hPa | 0 mm | - | 11 W/m² | - |
| 1778069271 | 1.11° C | 75% | 1013.7 hPa | 0 mm | - | 9 W/m² | - |
| 1778068969 | 0.56° C | 74% | 1013.5 hPa | 0 mm | - | 8 W/m² | - |
| 1778068062 | 0.56° C | 73% | 1013.4 hPa | 0 mm | - | 6 W/m² | - |
| 1778067458 | 0.56° C | 72% | 1013.5 hPa | 0 mm | - | 4 W/m² | - |
| 1778067155 | 0.56° C | 74% | 1013.5 hPa | 0 mm | - | 4 W/m² | - |
| 1778066851 | 0.56° C | 74% | 1013.4 hPa | 0 mm | - | 3 W/m² | - |
| 1778066549 | 0.56° C | 77% | 1013.5 hPa | 0 mm | - | 2 W/m² | - |
| 1778066246 | 0.56° C | 74% | 1013.5 hPa | 0 mm | - | 1 W/m² | - |
| 1778064430 | 0.56° C | 73% | 1013.4 hPa | 0 mm | - | 0 W/m² | - |
| 1778063824 | 0° C | 74% | 1013.4 hPa | 0 mm | - | 0 W/m² | - |
| 1778063521 | 0.56° C | 75% | 1013.3 hPa | 0 mm | - | 0 W/m² | - |
| 1778063219 | 0° C | 74% | 1013.3 hPa | 0 mm | - | 0 W/m² | - |
| 1778062613 | 0.56° C | 76% | 1013.1 hPa | 0 mm | - | 0 W/m² | - |
| 1778062310 | 0° C | 75% | 1013.3 hPa | 0 mm | - | 0 W/m² | - |
| 1778061706 | 0.56° C | 75% | 1013.4 hPa | 0 mm | - | 0 W/m² | - |
| 1778061404 | 0.56° C | 74% | 1013.7 hPa | 0 mm | - | 0 W/m² | - |
| 1778061100 | 0.56° C | 74% | 1013.1 hPa | 0 mm | - | 0 W/m² | - |
* Rain latest hour (hover to see other rain measurements)
** Current wind speed in m/s (hover to see current wind gust speed)